Overview Statistics Trail Chart Weather Telemetry Raw packets
 

This is the latest recevied weather packets stored in our database for station/object KB0BS-13. If no packets are shown the sender has not sent any weather packets the latest 10 day(s).

<< 75 76 77 78 79 80 81 >>
Time Temp. Humidity Pressure Rain* Wind** Luminosity Snow
1777154530 8.33° C 88% 1019.9 hPa 0 mm - 153 W/m² -
1777154226 8.33° C 89% 1020 hPa 0 mm - 166 W/m² -
1777153923 8.33° C 89% 1019.8 hPa 0 mm - 157 W/m² -
1777153619 8.33° C 89% 1019.8 hPa 0 mm - 136 W/m² -
1777153314 8.33° C 89% 1019.9 hPa 0 mm - 118 W/m² -
1777153011 8.33° C 90% 1019.7 hPa 0 mm - 109 W/m² -
1777152708 8.33° C 88% 1019.7 hPa 0 mm - 126 W/m² -
1777152404 8.33° C 89% 1019.9 hPa 0 mm - 128 W/m² -
1777152101 8.33° C 88% 1019.7 hPa 0 mm - 171 W/m² -
1777151796 8.33° C 89% 1019.7 hPa 0 mm - 173 W/m² -
1777151492 8.33° C 88% 1019.8 hPa 0 mm - 170 W/m² -
1777151188 8.33° C 88% 1019.8 hPa 0 mm - 173 W/m² -
1777150888 8.33° C 88% 1019.7 hPa 0 mm - 167 W/m² -
1777150583 8.33° C 86% 1019.7 hPa 0 mm - 184 W/m² -
1777150280 8.33° C 86% 1019.7 hPa 0 mm - 184 W/m² -
1777149978 8.89° C 86% 1019.6 hPa 0 mm - 193 W/m² -
1777149673 8.33° C 86% 1019.7 hPa 0 mm - 217 W/m² -
1777149370 8.33° C 86% 1019.6 hPa 0 mm - 213 W/m² -
1777149065 8.33° C 88% 1019.7 hPa 0 mm - 209 W/m² -
1777148760 8.33° C 87% 1019.7 hPa 0 mm - 191 W/m² -
1777148457 7.78° C 88% 1019.6 hPa 0 mm - 201 W/m² -
1777148153 7.78° C 89% 1019.1 hPa 0 mm - 180 W/m² -
1777147849 7.78° C 89% 1019.3 hPa 0 mm - 122 W/m² -
1777147545 7.78° C 88% 1019.2 hPa 0 mm - 115 W/m² -
1777147241 7.78° C 88% 1019.4 hPa 0 mm - 106 W/m² -

* Rain latest hour (hover to see other rain measurements)
** Current wind speed in m/s (hover to see current wind gust speed)